| time (UTC) | temp F | wind direction | speed MPH | gust MPH | rain 1hr in | rain 24hr in | rain mn in | humidity % | barometer mb |
| 20260904172017 | 71 | 315 | 5.0 | 11.0 | 0.00 | 0.01 | 0.00 | 71 | 1013.0 |
| 20260904171517 | 71 | 315 | 5.0 | 10.0 | 0.00 | 0.01 | 0.00 | 73 | 1013.0 |
| 20260904171016 | 71 | 315 | 4.0 | 9.0 | 0.00 | 0.01 | 0.00 | 68 | 1013.1 |
| 20260904170517 | 72 | 315 | 5.0 | 13.0 | 0.00 | 0.01 | 0.00 | 69 | 1013.2 |
| 20260904170017 | 72 | 315 | 4.0 | 11.0 | 0.00 | 0.01 | 0.00 | 69 | 1013.2 |
| 20260904165537 | 72 | 315 | 5.0 | 12.0 | 0.00 | 0.01 | 0.00 | 69 | 1013.3 |
| 20260904165017 | 72 | 315 | 6.0 | 11.0 | 0.00 | 0.01 | 0.00 | 68 | 1013.3 |
| 20260904164516 | 71 | 315 | 4.0 | 12.0 | 0.00 | 0.01 | 0.00 | 71 | 1013.2 |
| 20260904164017 | 71 | 315 | 7.0 | 15.0 | 0.00 | 0.01 | 0.00 | 69 | 1013.3 |
| 20260904163537 | 71 | 315 | 3.0 | 9.0 | 0.00 | 0.01 | 0.00 | 72 | 1013.3 |
| 20260904163017 | 70 | 315 | 4.0 | 8.0 | 0.00 | 0.01 | 0.00 | 75 | 1013.4 |
| 20260904162517 | 70 | 315 | 5.0 | 11.0 | 0.00 | 0.01 | 0.00 | 75 | 1013.4 |
| 20260904162017 | 69 | 315 | 5.0 | 13.0 | 0.00 | 0.01 | 0.00 | 75 | 1013.6 |
| 20260904161517 | 70 | 315 | 5.0 | 14.0 | 0.00 | 0.01 | 0.00 | 74 | 1013.5 |
| 20260904161017 | 70 | 315 | 5.0 | 12.0 | 0.00 | 0.01 | 0.00 | 73 | 1013.7 |
| 20260904160537 | 71 | 315 | 5.0 | 11.0 | 0.00 | 0.01 | 0.00 | 72 | 1013.6 |
| 20260904160017 | 71 | 315 | 6.0 | 17.0 | 0.00 | 0.01 | 0.00 | 71 | 1013.6 |
| 20260904155516 | 71 | 315 | 5.0 | 12.0 | 0.00 | 0.01 | 0.00 | 70 | 1013.5 |
| 20260904155017 | 71 | 293 | 4.0 | 13.0 | 0.00 | 0.01 | 0.00 | 71 | 1013.6 |
| 20260904154517 | 70 | 315 | 6.0 | 17.0 | 0.00 | 0.01 | 0.00 | 74 | 1013.7 |
| 20260904154017 | 70 | 315 | 6.0 | 17.0 | 0.00 | 0.01 | 0.00 | 72 | 1013.7 |
| 20260904153517 | 70 | 315 | 4.0 | 10.0 | 0.00 | 0.01 | 0.00 | 75 | 1013.7 |
| 20260904153016 | 70 | 315 | 5.0 | 11.0 | 0.00 | 0.01 | 0.00 | 74 | 1013.7 |
| 20260904152517 | 70 | 315 | 6.0 | 12.0 | 0.00 | 0.01 | 0.00 | 76 | 1013.6 |
| 20260904152017 | 70 | 315 | 5.0 | 11.0 | 0.00 | 0.01 | 0.00 | 76 | 1013.6 |
| 20260904151537 | 70 | 315 | 6.0 | 12.0 | 0.00 | 0.01 | 0.00 | 77 | 1013.8 |
| 20260904151057 | 69 | 315 | 6.0 | 11.0 | 0.00 | 0.01 | 0.00 | 77 | 1013.8 |
| 20260904150516 | 69 | 315 | 5.0 | 13.0 | 0.00 | 0.01 | 0.00 | 77 | 1013.7 |
| 20260904150017 | 69 | 315 | 6.0 | 10.0 | 0.00 | 0.01 | 0.00 | 79 | 1013.7 |
| 20260904145517 | 70 | 315 | 5.0 | 14.0 | 0.00 | 0.01 | 0.00 | 80 | 1013.8 |
| 20260904145017 | 69 | 315 | 3.0 | 9.0 | 0.00 | 0.01 | 0.00 | 81 | 1013.7 |
| 20260904144517 | 69 | 315 | 5.0 | 14.0 | 0.00 | 0.01 | 0.00 | 80 | 1013.7 |
| 20260904144017 | 69 | 315 | 6.0 | 14.0 | 0.00 | 0.01 | 0.00 | 79 | 1013.7 |
| 20260904143537 | 69 | 315 | 4.0 | 10.0 | 0.00 | 0.01 | 0.00 | 81 | 1013.6 |
| 20260904143037 | 69 | 315 | 3.0 | 10.0 | 0.00 | 0.01 | 0.00 | 81 | 1013.6 |
| 20260904142517 | 69 | 315 | 3.0 | 9.0 | 0.00 | 0.01 | 0.00 | 84 | 1013.6 |
| 20260904142017 | 68 | 315 | 3.0 | 8.0 | 0.00 | 0.01 | 0.00 | 82 | 1013.6 |
| 20260904141517 | 68 | 315 | 4.0 | 9.0 | 0.00 | 0.01 | 0.00 | 83 | 1013.5 |
| 20260904141017 | 68 | 338 | 4.0 | 10.0 | 0.00 | 0.01 | 0.00 | 83 | 1013.6 |
| 20260904140517 | 68 | 315 | 5.0 | 10.0 | 0.00 | 0.01 | 0.00 | 83 | 1013.6 |
| 20260904140017 | 68 | 315 | 4.0 | 11.0 | 0.00 | 0.01 | 0.00 | 85 | 1013.5 |
| 20260904135517 | 68 | 315 | 6.0 | 9.0 | 0.00 | 0.01 | 0.00 | 83 | 1013.6 |
| 20260904135017 | 67 | 315 | 3.0 | 10.0 | 0.00 | 0.01 | 0.00 | 84 | 1013.5 |
| 20260904134537 | 67 | 315 | 4.0 | 11.0 | 0.00 | 0.01 | 0.00 | 85 | 1013.5 |
| 20260904134017 | 68 | 315 | 5.0 | 11.0 | 0.00 | 0.01 | 0.00 | 84 | 1013.6 |
| 20260904133617 | 67 | 315 | 2.0 | 5.0 | 0.00 | 0.01 | 0.00 | 86 | 1013.5 |
| 20260904133016 | 68 | 315 | 3.0 | 8.0 | 0.00 | 0.01 | 0.00 | 86 | 1013.6 |
| 20260904132537 | 67 | 315 | 2.0 | 6.0 | 0.00 | 0.01 | 0.00 | 87 | 1013.6 |
| 20260904132017 | 67 | 315 | 1.0 | 5.0 | 0.00 | 0.01 | 0.00 | 87 | 1013.6 |
| 20260904131517 | 67 | 315 | 2.0 | 4.0 | 0.00 | 0.01 | 0.00 | 89 | 1013.6 |
| 20260904131017 | 68 | 315 | 1.0 | 5.0 | 0.00 | 0.01 | 0.00 | 89 | 1013.6 |
| 20260904130517 | 68 | 315 | 1.0 | 4.0 | 0.00 | 0.01 | 0.00 | 86 | 1013.6 |
| 20260904130017 | 67 | 0.0 | 0.0 | 0.00 | 0.01 | 0.00 | 92 | 1013.5 | |
| 20260904125517 | 66 | 0.0 | 2.0 | 0.00 | 0.01 | 0.00 | 92 | 1013.7 | |
| 20260904125017 | 66 | 293 | 1.0 | 3.0 | 0.00 | 0.01 | 0.00 | 92 | 1013.7 |
| 20260904124517 | 65 | 0.0 | 1.0 | 0.00 | 0.01 | 0.00 | 93 | 1013.7 | |
| 20260904124017 | 65 | 315 | 1.0 | 4.0 | 0.00 | 0.01 | 0.00 | 93 | 1013.7 |
| 20260904123557 | 64 | 0.0 | 0.0 | 0.00 | 0.01 | 0.00 | 95 | 1013.7 | |
| 20260904123017 | 64 | 0.0 | 3.0 | 0.00 | 0.01 | 0.00 | 95 | 1013.8 | |
| 20260904122517 | 64 | 315 | 1.0 | 4.0 | 0.00 | 0.01 | 0.00 | 96 | 1013.8 |
| 20260904122017 | 63 | 315 | 1.0 | 3.0 | 0.00 | 0.01 | 0.00 | 96 | 1013.8 |
| 20260904121517 | 63 | 315 | 1.0 | 3.0 | 0.00 | 0.01 | 0.00 | 96 | 1013.8 |
| 20260904121017 | 64 | 0.0 | 2.0 | 0.00 | 0.01 | 0.00 | 98 | 1013.7 | |
| 20260904120517 | 63 | 0.0 | 0.0 | 0.00 | 0.01 | 0.00 | 100 | 1013.7 | |
| 20260904120017 | 62 | 0.0 | 0.0 | 0.00 | 0.01 | 0.00 | 100 | 1013.6 | |
| 20260904115517 | 61 | 0.0 | 0.0 | 0.00 | 0.01 | 0.00 | 100 | 1013.7 | |
| 20260904115017 | 60 | 0.0 | 0.0 | 0.00 | 0.01 | 0.00 | 100 | 1013.6 | |
| 20260904114517 | 60 | 0.0 | 0.0 | 0.00 | 0.01 | 0.00 | 100 | 1013.7 | |
| 20260904114037 | 59 | 0.0 | 0.0 | 0.00 | 0.01 | 0.00 | 100 | 1013.7 | |
| 20260904113537 | 59 | 0.0 | 0.0 | 0.00 | 0.01 | 0.00 | 100 | 1013.6 | |
| 20260904113017 | 58 | 0.0 | 0.0 | 0.00 | 0.01 | 0.00 | 100 | 1013.7 | |
| 20260904112517 | 57 | 0.0 | 0.0 | 0.00 | 0.01 | 0.00 | 100 | 1013.5 | |
| 20260904112017 | 57 | 0.0 | 0.0 | 0.00 | 0.01 | 0.00 | 100 | 1013.5 | |
| 20260904111517 | 56 | 0.0 | 0.0 | 0.00 | 0.01 | 0.00 | 100 | 1013.5 | |
| 20260904111017 | 56 | 0.0 | 0.0 | 0.00 | 0.01 | 0.00 | 100 | 1013.3 | |
| 20260904110517 | 55 | 0.0 | 0.0 | 0.00 | 0.01 | 0.00 | 100 | 1013.4 | |
| 20260904110017 | 55 | 0.0 | 0.0 | 0.00 | 0.01 | 0.00 | 100 | 1013.3 | |
| 20260904105517 | 55 | 0.0 | 0.0 | 0.00 | 0.01 | 0.00 | 100 | 1013.2 | |
| 20260904105037 | 56 | 0.0 | 0.0 | 0.00 | 0.01 | 0.00 | 100 | 1013.2 | |
| 20260904104517 | 56 | 0.0 | 0.0 | 0.00 | 0.01 | 0.00 | 100 | 1013.2 | |
| 20260904104037 | 56 | 0.0 | 0.0 | 0.00 | 0.01 | 0.00 | 100 | 1013.1 | |
| 20260904103537 | 55 | 0.0 | 0.0 | 0.00 | 0.01 | 0.00 | 100 | 1013.1 | |
| 20260904103017 | 55 | 0.0 | 0.0 | 0.00 | 0.01 | 0.00 | 100 | 1013.1 | |
| 20260904102517 | 55 | 0.0 | 0.0 | 0.00 | 0.01 | 0.00 | 100 | 1013.0 | |
| 20260904102017 | 55 | 0.0 | 0.0 | 0.00 | 0.01 | 0.00 | 100 | 1013.1 | |
| 20260904101517 | 55 | 0.0 | 0.0 | 0.00 | 0.01 | 0.00 | 100 | 1013.0 | |
| 20260904101017 | 55 | 0.0 | 0.0 | 0.00 | 0.01 | 0.00 | 100 | 1013.1 | |
| 20260904100517 | 55 | 0.0 | 0.0 | 0.00 | 0.01 | 0.00 | 100 | 1013.0 | |
| 20260904100037 | 54 | 0.0 | 0.0 | 0.00 | 0.01 | 0.00 | 100 | 1013.0 | |
| 20260904095517 | 54 | 0.0 | 0.0 | 0.00 | 0.01 | 0.00 | 100 | 1013.0 | |
| 20260904095017 | 54 | 0.0 | 0.0 | 0.00 | 0.01 | 0.00 | 100 | 1012.9 | |
| 20260904094517 | 54 | 0.0 | 0.0 | 0.00 | 0.01 | 0.00 | 100 | 1012.9 | |
| 20260904094017 | 54 | 0.0 | 0.0 | 0.00 | 0.01 | 0.00 | 100 | 1013.0 | |
| 20260904093537 | 54 | 0.0 | 0.0 | 0.00 | 0.01 | 0.00 | 100 | 1012.8 | |
| 20260904093017 | 55 | 0.0 | 0.0 | 0.00 | 0.01 | 0.00 | 100 | 1012.9 | |
| 20260904092517 | 55 | 0.0 | 0.0 | 0.00 | 0.01 | 0.00 | 100 | 1012.8 | |
| 20260904092017 | 55 | 0.0 | 0.0 | 0.00 | 0.01 | 0.00 | 100 | 1012.9 | |
| 20260904091537 | 55 | 0.0 | 0.0 | 0.00 | 0.01 | 0.00 | 100 | 1012.9 | |
| 20260904091037 | 55 | 0.0 | 0.0 | 0.00 | 0.01 | 0.00 | 100 | 1012.8 | |
| 20260904090537 | 55 | 0.0 | 0.0 | 0.00 | 0.01 | 0.00 | 100 | 1012.8 | |
| 20260904090017 | 55 | 0.0 | 1.0 | 0.00 | 0.01 | 0.00 | 100 | 1012.7 | |
| 20260904085517 | 55 | 0.0 | 0.0 | 0.00 | 0.01 | 0.00 | 100 | 1012.7 | |
| 20260904085017 | 55 | 0.0 | 0.0 | 0.00 | 0.01 | 0.00 | 100 | 1012.8 | |
| 20260904084517 | 55 | 0.0 | 0.0 | 0.00 | 0.01 | 0.00 | 100 | 1012.8 | |
| 20260904084017 | 55 | 0.0 | 0.0 | 0.00 | 0.01 | 0.00 | 100 | 1012.8 | |
| 20260904083517 | 55 | 0.0 | 1.0 | 0.00 | 0.01 | 0.00 | 100 | 1012.7 | |
| 20260904083017 | 55 | 0.0 | 0.0 | 0.00 | 0.01 | 0.00 | 100 | 1012.8 | |
| 20260904082517 | 55 | 0.0 | 0.0 | 0.00 | 0.01 | 0.00 | 100 | 1012.9 | |
| 20260904082017 | 55 | 0.0 | 0.0 | 0.00 | 0.01 | 0.00 | 100 | 1013.0 | |
| 20260904081517 | 55 | 0.0 | 0.0 | 0.00 | 0.01 | 0.00 | 100 | 1012.8 | |
| 20260904081037 | 55 | 0.0 | 0.0 | 0.00 | 0.01 | 0.00 | 100 | 1012.8 | |
| 20260904080517 | 55 | 0.0 | 0.0 | 0.00 | 0.01 | 0.00 | 100 | 1012.7 | |
| 20260904080017 | 55 | 0.0 | 0.0 | 0.00 | 0.01 | 0.00 | 100 | 1012.8 | |
| 20260904075517 | 55 | 0.0 | 0.0 | 0.00 | 0.01 | 0.00 | 100 | 1012.8 | |
| 20260904075037 | 55 | 0.0 | 0.0 | 0.00 | 0.01 | 0.00 | 100 | 1012.9 | |
| 20260904074517 | 55 | 0.0 | 0.0 | 0.00 | 0.01 | 0.00 | 100 | 1012.8 | |
| 20260904074017 | 55 | 0.0 | 0.0 | 0.00 | 0.01 | 0.00 | 100 | 1012.7 | |
| 20260904073517 | 55 | 0.0 | 0.0 | 0.00 | 0.01 | 0.00 | 100 | 1012.8 | |
| 20260904073017 | 55 | 0.0 | 0.0 | 0.00 | 0.01 | 0.00 | 100 | 1012.8 | |
| 20260904072517 | 56 | 0.0 | 0.0 | 0.00 | 0.01 | 0.00 | 100 | 1012.8 | |
| 20260904072017 | 56 | 0.0 | 0.0 | 0.00 | 0.01 | 0.00 | 100 | 1012.8 | |
| 20260904071517 | 56 | 0.0 | 0.0 | 0.00 | 0.01 | 0.00 | 100 | 1012.8 | |
| 20260904071017 | 56 | 0.0 | 0.0 | 0.00 | 0.01 | 0.00 | 100 | 1012.8 | |
| 20260904070517 | 56 | 0.0 | 0.0 | 0.00 | 0.01 | 0.00 | 100 | 1012.7 | |
| 20260904070017 | 56 | 0.0 | 1.0 | 0.00 | 0.01 | 0.00 | 100 | 1012.7 | |
| 20260904065517 | 56 | 0.0 | 0.0 | 0.00 | 0.01 | 0.00 | 100 | 1012.8 | |
| 20260904065017 | 56 | 0.0 | 0.0 | 0.00 | 0.01 | 0.00 | 100 | 1012.8 | |
| 20260904064517 | 56 | 0.0 | 1.0 | 0.00 | 0.01 | 0.00 | 100 | 1012.8 | |
| 20260904064015 | 56 | 0.0 | 1.0 | 0.00 | 0.01 | 0.00 | 100 | 1012.9 | |
| 20260904063517 | 56 | 0.0 | 0.0 | 0.00 | 0.01 | 0.00 | 100 | 1012.9 | |
| 20260904063017 | 56 | 0.0 | 0.0 | 0.00 | 0.01 | 0.00 | 100 | 1013.1 | |
| 20260904062517 | 56 | 0.0 | 0.0 | 0.00 | 0.01 | 0.00 | 100 | 1013.2 | |
| 20260904062017 | 56 | 0.0 | 0.0 | 0.00 | 0.01 | 0.00 | 100 | 1013.3 | |
| 20260904061517 | 56 | 0.0 | 0.0 | 0.00 | 0.01 | 0.00 | 100 | 1013.3 | |
| 20260904061037 | 56 | 0.0 | 0.0 | 0.00 | 0.01 | 0.00 | 100 | 1013.3 | |
| 20260904060517 | 56 | 0.0 | 0.0 | 0.00 | 0.01 | 0.00 | 100 | 1013.4 | |
| 20260904060017 | 56 | 0.0 | 0.0 | 0.00 | 0.01 | 0.00 | 100 | 1013.5 | |
| 20260904055517 | 57 | 0.0 | 0.0 | 0.00 | 0.01 | 0.00 | 100 | 1013.4 | |
| 20260904055017 | 57 | 0.0 | 0.0 | 0.00 | 0.01 | 0.00 | 100 | 1013.4 | |
| 20260904054517 | 56 | 0.0 | 0.0 | 0.00 | 0.01 | 0.00 | 100 | 1013.4 | |
| 20260904054017 | 56 | 0.0 | 0.0 | 0.00 | 0.01 | 0.00 | 100 | 1013.5 | |
| 20260904053517 | 56 | 0.0 | 0.0 | 0.00 | 0.01 | 0.00 | 100 | 1013.6 | |
| 20260904053017 | 56 | 0.0 | 0.0 | 0.00 | 0.01 | 0.00 | 100 | 1013.7 | |
| 20260904052517 | 56 | 0.0 | 0.0 | 0.00 | 0.01 | 0.00 | 100 | 1013.8 | |
| 20260904052017 | 56 | 0.0 | 0.0 | 0.00 | 0.01 | 0.00 | 100 | 1013.9 | |
| 20260904051517 | 56 | 0.0 | 0.0 | 0.00 | 0.01 | 0.00 | 100 | 1013.9 | |
| 20260904051017 | 56 | 0.0 | 0.0 | 0.00 | 0.01 | 0.00 | 100 | 1013.9 | |
| 20260904050517 | 56 | 0.0 | 0.0 | 0.00 | 0.01 | 0.00 | 100 | 1014.0 | |
| 20260904050017 | 56 | 0.0 | 0.0 | 0.00 | 0.01 | 0.00 | 100 | 1014.0 | |
| 20260904045517 | 57 | 0.0 | 0.0 | 0.00 | 0.01 | 0.00 | 100 | 1014.0 | |
| 20260904045017 | 57 | 0.0 | 0.0 | 0.00 | 0.01 | 0.00 | 100 | 1014.0 | |
| 20260904044517 | 57 | 0.0 | 0.0 | 0.00 | 0.01 | 0.00 | 100 | 1014.0 | |
| 20260904044017 | 57 | 0.0 | 0.0 | 0.00 | 0.01 | 0.00 | 100 | 1014.0 | |
| 20260904043517 | 57 | 0.0 | 0.0 | 0.00 | 0.01 | 0.00 | 100 | 1013.9 | |
| 20260904043017 | 57 | 0.0 | 0.0 | 0.00 | 0.01 | 0.00 | 100 | 1013.9 | |
| 20260904042517 | 57 | 0.0 | 1.0 | 0.00 | 0.01 | 0.00 | 100 | 1013.9 | |
| 20260904042017 | 57 | 0.0 | 0.0 | 0.00 | 0.01 | 0.00 | 100 | 1013.9 | |
| 20260904041517 | 57 | 0.0 | 0.0 | 0.00 | 0.01 | 0.00 | 100 | 1013.9 | |
| 20260904041017 | 57 | 0.0 | 0.0 | 0.00 | 0.01 | 0.00 | 99 | 1014.0 | |
| 20260904040517 | 57 | 0.0 | 0.0 | 0.00 | 0.01 | 0.00 | 99 | 1014.2 | |
| 20260904040017 | 57 | 0.0 | 0.0 | 0.00 | 0.01 | 0.00 | 100 | 1014.1 | |
| 20260904035517 | 57 | 0.0 | 0.0 | 0.00 | 0.01 | 0.01 | 100 | 1014.1 | |
| 20260904035017 | 57 | 0.0 | 0.0 | 0.00 | 0.01 | 0.01 | 100 | 1014.1 | |
| 20260904034517 | 57 | 0.0 | 0.0 | 0.00 | 0.01 | 0.01 | 99 | 1014.1 | |
| 20260904034017 | 58 | 0.0 | 0.0 | 0.00 | 0.01 | 0.01 | 99 | 1014.3 | |
| 20260904033537 | 58 | 0.0 | 0.0 | 0.00 | 0.01 | 0.01 | 99 | 1014.3 | |
| 20260904033017 | 58 | 0.0 | 0.0 | 0.00 | 0.01 | 0.01 | 99 | 1014.5 | |
| 20260904032517 | 58 | 0.0 | 0.0 | 0.00 | 0.01 | 0.01 | 99 | 1014.3 | |
| 20260904032017 | 58 | 0.0 | 0.0 | 0.00 | 0.01 | 0.01 | 100 | 1014.4 | |
| 20260904031517 | 58 | 0.0 | 0.0 | 0.00 | 0.01 | 0.01 | 99 | 1014.3 | |
| 20260904031037 | 58 | 0.0 | 0.0 | 0.00 | 0.01 | 0.01 | 99 | 1014.5 | |
| 20260904030517 | 58 | 0.0 | 0.0 | 0.00 | 0.01 | 0.01 | 99 | 1014.4 | |
| 20260904030017 | 58 | 0.0 | 0.0 | 0.00 | 0.01 | 0.01 | 99 | 1014.5 | |
| 20260904025537 | 59 | 0.0 | 0.0 | 0.00 | 0.01 | 0.01 | 99 | 1014.6 | |
| 20260904025037 | 59 | 0.0 | 1.0 | 0.00 | 0.01 | 0.01 | 99 | 1014.7 | |
| 20260904024517 | 59 | 0.0 | 0.0 | 0.00 | 0.01 | 0.01 | 99 | 1014.7 | |
| 20260904024017 | 59 | 0.0 | 1.0 | 0.00 | 0.01 | 0.01 | 99 | 1014.6 | |
| 20260904023517 | 59 | 0.0 | 0.0 | 0.00 | 0.01 | 0.01 | 99 | 1014.6 | |
| 20260904023017 | 59 | 0.0 | 1.0 | 0.00 | 0.01 | 0.01 | 99 | 1014.5 | |
| 20260904022537 | 59 | 0.0 | 1.0 | 0.00 | 0.01 | 0.01 | 99 | 1014.6 | |
| 20260904022017 | 60 | 0.0 | 0.0 | 0.00 | 0.01 | 0.01 | 99 | 1014.8 | |
| 20260904021537 | 60 | 0.0 | 0.0 | 0.00 | 0.01 | 0.01 | 99 | 1014.7 | |
| 20260904021017 | 60 | 0.0 | 0.0 | 0.00 | 0.01 | 0.01 | 99 | 1014.7 | |
| 20260904020537 | 60 | 0.0 | 0.0 | 0.00 | 0.01 | 0.01 | 99 | 1014.6 | |
| 20260904020017 | 60 | 0.0 | 1.0 | 0.00 | 0.01 | 0.01 | 99 | 1014.6 | |
| 20260904015517 | 60 | 0.0 | 0.0 | 0.00 | 0.01 | 0.01 | 99 | 1014.6 | |
| 20260904015017 | 60 | 0.0 | 0.0 | 0.00 | 0.01 | 0.01 | 98 | 1014.7 | |
| 20260904014521 | 61 | 0.0 | 0.0 | 0.00 | 0.01 | 0.01 | 98 | 1014.6 | |
| 20260904014037 | 61 | 0.0 | 0.0 | 0.00 | 0.01 | 0.01 | 98 | 1014.6 | |
| 20260904013517 | 61 | 0.0 | 0.0 | 0.00 | 0.01 | 0.01 | 98 | 1014.5 | |
| 20260904013037 | 61 | 0.0 | 0.0 | 0.00 | 0.01 | 0.01 | 98 | 1014.6 | |
| 20260904012517 | 62 | 0.0 | 0.0 | 0.00 | 0.01 | 0.01 | 98 | 1014.7 | |
| 20260904012017 | 62 | 0.0 | 0.0 | 0.00 | 0.01 | 0.01 | 97 | 1014.6 | |
| 20260904011517 | 62 | 0.0 | 0.0 | 0.00 | 0.01 | 0.01 | 97 | 1014.7 | |
| 20260904011017 | 63 | 0.0 | 0.0 | 0.00 | 0.01 | 0.01 | 96 | 1014.5 | |
| 20260904010537 | 63 | 0.0 | 2.0 | 0.00 | 0.01 | 0.01 | 96 | 1014.5 | |
| 20260904010017 | 62 | 315 | 1.0 | 2.0 | 0.00 | 0.01 | 0.01 | 98 | 1014.5 |
| 20260904005517 | 62 | 0.0 | 1.0 | 0.00 | 0.01 | 0.01 | 98 | 1014.5 | |
| 20260904005017 | 63 | 0.0 | 1.0 | 0.00 | 0.01 | 0.01 | 98 | 1014.5 | |
| 20260904004537 | 63 | 0.0 | 0.0 | 0.00 | 0.01 | 0.01 | 98 | 1014.4 | |
| 20260904004017 | 63 | 0.0 | 0.0 | 0.00 | 0.01 | 0.01 | 99 | 1014.5 | |
| 20260904003517 | 63 | 0.0 | 0.0 | 0.00 | 0.01 | 0.01 | 98 | 1014.4 | |
| 20260904003017 | 63 | 0.0 | 0.0 | 0.00 | 0.01 | 0.01 | 99 | 1014.3 | |
| 20260904002517 | 63 | 0.0 | 0.0 | 0.00 | 0.01 | 0.01 | 98 | 1014.2 | |
| 20260904002017 | 64 | 0.0 | 0.0 | 0.00 | 0.01 | 0.01 | 98 | 1014.0 | |
| 20260904001517 | 64 | 0.0 | 0.0 | 0.00 | 0.01 | 0.01 | 98 | 1013.8 | |
| 20260904001017 | 64 | 0.0 | 0.0 | 0.00 | 0.01 | 0.01 | 98 | 1013.7 | |
| 20260904000517 | 64 | 0.0 | 0.0 | 0.00 | 0.01 | 0.01 | 98 | 1013.8 | |
| 20260904000017 | 65 | 0.0 | 0.0 | 0.00 | 0.01 | 0.01 | 98 | 1013.9 | |
| 20260903235517 | 65 | 0.0 | 0.0 | 0.00 | 0.01 | 0.01 | 97 | 1013.8 | |
| 20260903235017 | 65 | 0.0 | 0.0 | 0.00 | 0.01 | 0.01 | 97 | 1013.8 | |
| 20260903234517 | 65 | 0.0 | 1.0 | 0.00 | 0.01 | 0.01 | 97 | 1013.6 | |
| 20260903234017 | 66 | 0.0 | 1.0 | 0.00 | 0.01 | 0.01 | 97 | 1013.4 | |
| 20260903233517 | 66 | 0.0 | 0.0 | 0.00 | 0.01 | 0.01 | 96 | 1013.4 | |
| 20260903233017 | 66 | 0.0 | 1.0 | 0.00 | 0.01 | 0.01 | 96 | 1013.4 | |
| 20260903232517 | 67 | 0.0 | 0.0 | 0.00 | 0.01 | 0.01 | 95 | 1013.5 | |
| 20260903232037 | 67 | 0.0 | 0.0 | 0.00 | 0.01 | 0.01 | 94 | 1013.4 | |
| 20260903231517 | 67 | 0.0 | 0.0 | 0.00 | 0.01 | 0.01 | 94 | 1013.4 | |
| 20260903231017 | 68 | 0.0 | 0.0 | 0.00 | 0.01 | 0.01 | 93 | 1013.5 | |
| 20260903230517 | 68 | 0.0 | 0.0 | 0.00 | 0.01 | 0.01 | 92 | 1013.6 | |
| 20260903230017 | 69 | 0.0 | 0.0 | 0.00 | 0.01 | 0.01 | 91 | 1013.6 | |
| 20260903225517 | 69 | 0.0 | 0.0 | 0.00 | 0.01 | 0.01 | 90 | 1013.7 | |
| 20260903225017 | 70 | 0.0 | 1.0 | 0.00 | 0.01 | 0.01 | 90 | 1013.7 | |
| 20260903224537 | 71 | 0.0 | 1.0 | 0.00 | 0.01 | 0.01 | 88 | 1013.6 | |
| 20260903224017 | 71 | 0.0 | 1.0 | 0.00 | 0.01 | 0.01 | 87 | 1013.7 | |
| 20260903223517 | 72 | 315 | 1.0 | 3.0 | 0.00 | 0.01 | 0.01 | 87 | 1013.7 |
| 20260903223017 | 72 | 315 | 1.0 | 3.0 | 0.00 | 0.01 | 0.01 | 86 | 1013.6 |
| 20260903222517 | 73 | 0.0 | 3.0 | 0.00 | 0.01 | 0.01 | 86 | 1013.6 | |
| 20260903222017 | 72 | 293 | 1.0 | 3.0 | 0.00 | 0.01 | 0.01 | 86 | 1013.6 |
| 20260903221517 | 72 | 315 | 1.0 | 3.0 | 0.00 | 0.01 | 0.01 | 88 | 1013.7 |
| 20260903221017 | 72 | 0.0 | 2.0 | 0.00 | 0.01 | 0.01 | 88 | 1013.7 | |
| 20260903220537 | 72 | 0.0 | 0.0 | 0.00 | 0.01 | 0.01 | 87 | 1013.7 | |
| 20260903220037 | 72 | 0.0 | 0.0 | 0.00 | 0.01 | 0.01 | 87 | 1013.7 | |
| 20260903215517 | 73 | 315 | 1.0 | 4.0 | 0.00 | 0.01 | 0.01 | 85 | 1013.7 |
| 20260903215017 | 73 | 338 | 1.0 | 3.0 | 0.00 | 0.01 | 0.01 | 86 | 1013.8 |
| 20260903214517 | 73 | 158 | 1.0 | 2.0 | 0.00 | 0.01 | 0.01 | 86 | 1013.9 |
| 20260903214017 | 74 | 0.0 | 1.0 | 0.00 | 0.01 | 0.01 | 85 | 1013.9 | |
| 20260903213517 | 74 | 0 | 1.0 | 7.0 | 0.00 | 0.01 | 0.01 | 83 | 1013.8 |
| 20260903213017 | 75 | 315 | 2.0 | 6.0 | 0.00 | 0.01 | 0.01 | 82 | 1014.0 |
| 20260903212517 | 75 | 315 | 1.0 | 3.0 | 0.00 | 0.01 | 0.01 | 83 | 1014.1 |
| 20260903212017 | 75 | 0.0 | 1.0 | 0.00 | 0.01 | 0.01 | 83 | 1014.1 | |
| 20260903211517 | 76 | 0.0 | 2.0 | 0.00 | 0.01 | 0.01 | 81 | 1013.9 | |
| 20260903211017 | 76 | 180 | 1.0 | 4.0 | 0.00 | 0.01 | 0.01 | 81 | 1013.9 |
| 20260903210517 | 77 | 180 | 1.0 | 4.0 | 0.00 | 0.01 | 0.01 | 79 | 1013.8 |
| 20260903210017 | 76 | 0.0 | 2.0 | 0.00 | 0.01 | 0.01 | 82 | 1013.8 | |
| 20260903205537 | 75 | 315 | 1.0 | 3.0 | 0.00 | 0.01 | 0.01 | 80 | 1013.8 |
| 20260903205017 | 76 | 315 | 1.0 | 6.0 | 0.00 | 0.01 | 0.01 | 80 | 1013.8 |
| 20260903204517 | 76 | 315 | 3.0 | 7.0 | 0.00 | 0.01 | 0.01 | 78 | 1013.7 |
| 20260903204037 | 76 | 203 | 1.0 | 3.0 | 0.00 | 0.01 | 0.01 | 80 | 1013.8 |
| 20260903203517 | 76 | 315 | 2.0 | 5.0 | 0.00 | 0.01 | 0.01 | 80 | 1013.8 |
| 20260903203017 | 76 | 293 | 2.0 | 6.0 | 0.00 | 0.01 | 0.01 | 77 | 1013.7 |
| 20260903202517 | 77 | 248 | 2.0 | 6.0 | 0.00 | 0.01 | 0.01 | 76 | 1013.7 |
| 20260903202017 | 76 | 248 | 1.0 | 4.0 | 0.00 | 0.01 | 0.01 | 78 | 1013.7 |
| 20260903201517 | 75 | 270 | 1.0 | 6.0 | 0.00 | 0.01 | 0.01 | 79 | 1013.7 |
| 20260903201037 | 74 | 315 | 2.0 | 4.0 | 0.00 | 0.01 | 0.01 | 83 | 1013.8 |
| 20260903200517 | 74 | 315 | 1.0 | 7.0 | 0.00 | 0.01 | 0.01 | 84 | 1013.9 |
| 20260903200017 | 74 | 293 | 1.0 | 4.0 | 0.00 | 0.01 | 0.01 | 83 | 1013.9 |
| 20260903195517 | 75 | 315 | 3.0 | 6.0 | 0.00 | 0.01 | 0.01 | 81 | 1013.9 |
| 20260903195017 | 76 | 315 | 1.0 | 6.0 | 0.00 | 0.01 | 0.01 | 80 | 1013.9 |
| 20260903194517 | 75 | 293 | 1.0 | 5.0 | 0.00 | 0.01 | 0.01 | 86 | 1013.9 |
| 20260903194017 | 75 | 270 | 1.0 | 6.0 | 0.00 | 0.01 | 0.01 | 83 | 1014.0 |
| 20260903193517 | 75 | 158 | 2.0 | 4.0 | 0.00 | 0.01 | 0.01 | 83 | 1014.1 |
| 20260903193037 | 75 | 225 | 3.0 | 9.0 | 0.00 | 0.01 | 0.01 | 84 | 1014.2 |
| 20260903192517 | 75 | 135 | 1.0 | 3.0 | 0.00 | 0.01 | 0.01 | 84 | 1014.1 |
| 20260903192017 | 75 | 158 | 1.0 | 8.0 | 0.00 | 0.01 | 0.01 | 84 | 1014.1 |
| 20260903191517 | 75 | 158 | 2.0 | 6.0 | 0.00 | 0.01 | 0.01 | 83 | 1014.1 |
| 20260903191017 | 75 | 135 | 2.0 | 6.0 | 0.00 | 0.01 | 0.01 | 84 | 1014.1 |
| 20260903190517 | 74 | 270 | 2.0 | 4.0 | 0.00 | 0.01 | 0.01 | 84 | 1014.1 |
| 20260903190017 | 74 | 113 | 2.0 | 6.0 | 0.00 | 0.01 | 0.01 | 88 | 1014.1 |
| 20260903185518 | 73 | 293 | 1.0 | 4.0 | 0.00 | 0.01 | 0.01 | 86 | 1014.2 |
| 20260903185017 | 73 | 293 | 1.0 | 4.0 | 0.00 | 0.01 | 0.01 | 86 | 1014.2 |
| 20260903184517 | 73 | 315 | 2.0 | 4.0 | 0.00 | 0.01 | 0.01 | 87 | 1014.2 |
| 20260903184017 | 73 | 315 | 2.0 | 3.0 | 0.00 | 0.01 | 0.01 | 86 | 1014.2 |
| 20260903183517 | 74 | 315 | 1.0 | 4.0 | 0.00 | 0.01 | 0.01 | 86 | 1014.3 |
| 20260903183017 | 73 | 293 | 1.0 | 5.0 | 0.00 | 0.01 | 0.01 | 87 | 1014.3 |
| 20260903182517 | 73 | 135 | 1.0 | 5.0 | 0.00 | 0.01 | 0.01 | 87 | 1014.4 |
| 20260903182017 | 74 | 293 | 2.0 | 5.0 | 0.01 | 0.01 | 0.01 | 85 | 1014.5 |
| 20260903181517 | 74 | 293 | 2.0 | 8.0 | 0.01 | 0.01 | 0.01 | 87 | 1014.4 |
| 20260903181017 | 73 | 315 | 1.0 | 5.0 | 0.01 | 0.01 | 0.01 | 85 | 1014.5 |
| 20260903180517 | 73 | 135 | 1.0 | 3.0 | 0.01 | 0.01 | 0.01 | 86 | 1014.5 |
| 20260903180017 | 74 | 135 | 2.0 | 8.0 | 0.01 | 0.01 | 0.01 | 84 | 1014.6 |
| 20260903175517 | 74 | 203 | 2.0 | 7.0 | 0.01 | 0.01 | 0.01 | 84 | 1014.6 |
| 20260903175017 | 73 | 225 | 1.0 | 4.0 | 0.01 | 0.01 | 0.01 | 86 | 1014.6 |
| 20260903174517 | 73 | 135 | 2.0 | 7.0 | 0.01 | 0.01 | 0.01 | 85 | 1014.7 |
| 20260903174017 | 73 | 158 | 1.0 | 4.0 | 0.01 | 0.01 | 0.01 | 87 | 1014.7 |
| 20260903173517 | 72 | 338 | 1.0 | 4.0 | 0.01 | 0.01 | 0.01 | 87 | 1014.6 |
| 20260903173017 | 73 | 315 | 2.0 | 5.0 | 0.01 | 0.01 | 0.01 | 86 | 1014.8 |
| 20260903172515 | 73 | 338 | 1.0 | 3.0 | 0.01 | 0.01 | 0.01 | 87 | 1014.8 |